GFSGBSN_500_spd_057.txt.gz
Wind_Speed
34 36 38 40 40 41 40 39 38 37 38 37 36 36 35 30 31 31 30 29 27 24 19 18 16 15 13 13 14 14 15 14 10 10 12 15 16 18 20 22 19 16 7 6 1 4 3
35 36 38 40 41 42 42 42 40 39 38 39 39 39 38 37 32 32 33 33 32 27 21 20 18 18 18 17 16 14 18 17 14 12 12 14 20 19 22 22 21 19 13 10 8 6 6
35 37 38 39 41 42 43 43 42 40 40 40 40 41 41 39 37 36 33 34 33 31 26 22 21 20 21 17 17 17 16 17 19 16 14 15 18 18 20 22 15 21 17 14 5 10 11
34 38 40 40 41 42 43 44 44 42 41 41 40 41 42 42 41 37 35 35 37 34 30 25 23 23 23 17 22 21 19 20 18 19 16 16 18 18 16 25 23 26 18 19 13 10 12
26 32 39 42 43 44 44 45 45 44 43 42 41 40 42 42 41 41 38 37 39 36 34 33 24 24 24 21 20 20 23 20 20 20 17 16 15 20 18 28 29 31 19 13 10 13 15
28 30 32 38 44 46 46 46 46 46 45 44 43 42 41 43 44 40 38 39 41 39 39 36 29 25 24 21 20 19 22 20 21 19 20 19 12 17 23 24 30 28 20 7 11 5 1
26 28 31 33 36 44 48 48 48 47 47 46 45 44 43 42 42 45 43 38 41 41 40 36 31 25 24 22 20 21 20 22 21 20 22 18 15 15 22 21 29 25 18 15 9 13 12
27 28 27 30 33 35 41 48 49 49 49 48 46 45 44 43 43 43 47 46 47 44 40 38 35 28 25 24 19 23 21 19 23 22 23 18 13 19 18 18 26 25 17 16 16 13 16
25 27 30 30 30 33 34 39 47 51 50 50 48 47 45 45 43 43 45 45 47 47 45 38 36 31 26 28 23 19 21 20 23 23 22 18 22 22 19 21 29 23 22 18 16 18 15
25 27 28 31 31 32 34 35 37 45 51 50 50 48 46 46 44 43 43 41 43 43 45 37 35 33 27 31 27 20 21 21 20 21 24 19 21 21 24 24 30 29 26 21 20 20 20
28 27 28 27 31 32 33 34 35 35 40 50 50 48 46 46 45 44 41 40 38 39 41 30 29 30 28 31 20 30 28 27 19 18 25 18 21 24 24 22 28 31 32 30 19 26 25
28 28 29 28 28 32 32 34 35 35 34 39 49 48 45 45 45 44 41 39 39 39 39 26 24 23 28 26 23 28 31 30 26 24 22 20 25 26 25 25 27 29 31 29 25 24 23
26 28 29 26 26 26 30 34 34 32 32 34 40 48 44 42 45 44 41 41 41 41 33 29 27 23 25 25 23 25 26 24 26 30 21 21 21 23 23 26 27 27 17 15 28 29 24
25 28 28 25 23 22 25 30 34 36 34 33 35 40 41 40 43 43 41 42 43 40 34 29 29 27 25 25 25 27 28 27 22 23 28 28 20 21 25 24 23 16 16 16 20 27 20
31 28 28 26 22 18 16 26 30 32 33 35 34 37 34 39 41 41 40 43 43 40 35 33 24 31 29 29 25 28 29 23 20 20 23 26 26 21 25 25 21 20 16 16 18 17 20
23 30 29 28 25 21 20 19 31 29 28 30 32 34 35 34 39 40 40 42 43 38 36 31 33 32 32 25 26 27 26 23 22 21 21 23 24 24 23 28 24 24 16 16 16 19 21
32 31 29 29 29 25 20 21 27 29 26 27 28 31 31 32 36 39 40 41 39 32 34 32 37 37 33 29 28 26 23 28 29 29 26 26 22 25 24 26 24 19 17 8 13 23 22
30 29 28 32 28 28 21 18 19 29 25 25 25 26 28 29 33 36 38 39 36 31 34 37 41 43 38 36 31 30 26 28 28 29 28 21 25 28 31 27 20 24 23 22 19 14 22
26 30 29 30 29 28 22 15 16 31 27 28 24 23 26 26 30 34 37 37 36 35 37 37 43 46 48 43 39 34 30 27 27 27 28 27 28 29 33 32 25 24 29 28 21 20 20
30 33 32 29 28 27 25 16 11 12 33 34 28 26 26 25 29 27 30 32 31 32 38 39 44 50 50 49 45 41 36 33 31 30 27 28 30 27 32 30 30 26 26 30 27 23 25
33 29 28 30 30 28 28 22 14 13 13 21 23 26 24 25 27 26 25 25 25 28 32 38 47 49 49 52 47 48 42 39 36 33 29 31 33 30 29 33 35 33 28 28 27 29 26
26 26 27 27 26 30 31 28 23 18 14 15 12 18 20 26 28 26 24 25 23 24 28 35 41 48 48 49 53 47 51 47 42 35 33 33 36 36 33 33 35 38 37 32 34 31 31
18 25 23 29 26 31 30 30 27 24 20 17 16 14 16 26 27 32 27 25 27 28 30 35 39 44 46 47 50 56 51 50 48 42 40 37 38 37 34 35 36 34 37 34 33 36 37
21 23 25 24 28 31 31 29 28 27 24 20 21 20 17 21 20 23 26 24 25 29 31 34 37 39 43 40 40 44 51 51 53 55 48 37 34 40 38 36 41 39 37 33 35 37 38
19 18 21 22 29 33 32 30 27 26 25 26 23 22 23 22 18 23 22 28 26 28 29 39 38 37 36 34 33 33 32 42 55 56 54 56 47 44 46 45 45 47 46 41 41 38 40
19 24 22 24 25 34 33 31 27 26 27 27 26 24 25 26 24 23 22 22 21 26 28 25 19 24 29 24 25 32 31 31 37 48 57 59 57 58 53 53 53 51 49 50 50 45 42
19 24 21 27 24 31 37 33 28 25 27 28 27 25 25 26 24 24 23 21 20 23 23 21 27 32 33 33 25 24 25 31 33 37 41 48 48 49 52 56 56 54 52 54 48 42 38
18 22 21 23 25 27 39 34 29 26 26 28 26 24 24 25 25 25 24 22 23 23 22 25 28 28 28 28 29 30 29 29 34 35 36 39 42 45 44 49 54 50 47 46 42 39 38
17 18 24 23 28 31 39 37 31 27 26 26 26 25 25 24 21 25 23 22 23 24 25 26 27 27 25 26 26 27 30 31 30 30 35 39 42 41 40 45 46 45 45 45 44 37 36

GFSGBSN_500_spd_060.txt.gz
Wind_Speed
32 34 36 38 39 39 39 38 37 36 36 36 35 36 36 34 31 33 32 30 28 25 22 15 15 14 15 16 14 11 13 12 10 7 7 10 11 13 13 16 10 7 5 12 7 8 2
31 33 36 38 40 41 41 41 40 39 38 38 39 39 39 37 34 33 35 34 32 30 27 20 19 17 17 18 16 14 14 15 13 11 9 12 15 15 14 16 15 15 15 11 11 13 10
33 34 36 38 40 42 43 43 43 42 41 40 39 41 42 41 41 34 34 35 35 34 32 27 21 21 21 16 21 20 16 16 17 14 14 15 14 16 12 15 14 19 21 17 12 15 14
28 38 38 39 41 43 44 44 44 44 43 42 41 41 41 43 44 43 38 36 36 36 35 32 26 25 23 18 24 21 19 19 18 17 17 18 13 15 14 15 17 17 20 14 13 16 11
28 28 33 41 42 43 44 46 46 45 44 44 43 42 42 42 43 46 45 42 40 39 38 36 32 26 24 21 21 22 23 22 20 19 20 18 13 10 16 17 21 21 23 19 9 16 15
24 28 31 32 38 44 47 47 47 47 46 44 43 43 42 41 40 43 48 46 45 41 39 39 36 30 26 20 22 24 25 21 20 20 20 19 14 12 16 18 21 28 27 15 8 15 17
23 27 31 33 35 38 43 49 51 50 48 46 44 44 43 42 40 41 45 45 47 46 42 38 35 33 29 23 23 24 25 22 21 19 23 21 13 14 16 19 21 30 31 15 10 15 17
26 28 29 32 35 35 39 42 49 52 51 50 47 45 44 43 41 41 44 45 45 44 41 41 39 35 31 28 23 25 25 25 23 18 23 20 14 18 19 20 20 25 34 16 17 18 19
33 30 29 30 31 36 35 37 41 46 53 53 50 48 45 45 43 42 43 43 43 45 45 41 39 36 33 32 23 25 24 25 24 19 21 19 21 23 20 20 19 23 27 19 18 22 19
32 33 32 30 31 32 35 36 36 39 44 51 53 50 48 46 44 43 43 42 41 42 46 43 42 40 38 33 32 27 29 26 23 21 23 18 25 21 24 19 22 21 25 24 26 27 25
33 34 30 29 31 33 33 35 37 38 38 42 48 52 50 47 44 43 43 42 40 40 44 38 37 37 35 34 28 28 30 31 23 19 25 15 23 25 23 20 24 22 29 27 25 29 27
36 35 31 29 32 33 33 33 35 38 37 38 40 43 50 49 44 43 42 42 41 41 42 33 30 29 26 28 26 25 35 34 26 27 27 15 23 24 21 23 22 22 32 32 30 29 27
38 36 35 29 29 31 32 32 32 36 37 37 36 35 38 44 45 43 41 41 42 43 37 35 32 28 23 21 26 24 31 33 33 30 27 19 20 24 24 24 27 27 29 33 29 26 32
40 35 33 30 29 30 30 29 29 31 36 37 36 35 35 38 42 43 40 41 42 41 37 36 28 26 23 21 26 29 29 32 30 28 26 32 24 20 23 24 31 29 27 19 24 25 23
43 35 34 33 32 30 30 27 23 26 31 35 34 32 31 35 38 40 39 41 41 39 37 35 33 25 26 27 28 29 31 32 29 24 24 22 27 24 22 24 30 30 25 20 23 22 23
39 37 34 30 32 31 30 28 24 20 26 33 34 36 34 34 33 35 39 39 39 38 39 35 32 33 33 31 30 28 29 31 29 28 27 25 25 27 25 25 31 29 25 27 23 24 22
36 39 33 34 34 32 30 30 26 26 25 31 31 31 31 33 34 36 38 39 38 37 39 36 35 33 33 36 33 31 29 31 30 31 26 26 27 26 26 26 29 29 28 27 26 24 22
35 36 33 33 26 31 31 30 27 24 20 27 28 29 29 31 32 35 33 33 37 37 36 36 36 36 37 37 38 31 34 31 32 32 29 24 27 28 27 27 27 28 28 24 21 18 18
33 30 29 22 27 25 32 28 26 22 16 26 28 26 26 28 30 32 33 36 39 38 36 37 36 39 42 40 37 34 33 33 31 32 33 30 28 28 29 30 29 28 27 26 29 25 23
27 26 27 25 31 28 25 30 26 20 19 23 32 27 25 25 26 30 31 33 35 34 34 36 36 42 44 46 42 38 34 32 31 32 33 30 28 25 29 31 31 30 26 26 29 31 28
23 22 25 26 28 28 24 27 25 20 15 14 32 28 26 23 25 25 25 25 27 30 34 37 35 39 46 46 48 44 38 36 33 30 29 27 29 27 26 30 32 32 29 24 24 26 27
22 23 19 23 25 26 27 31 27 21 16 10 10 29 31 26 28 23 18 17 18 22 29 36 36 40 45 46 46 49 44 38 37 36 33 30 29 28 27 26 26 29 29 25 26 27 24
20 22 19 19 20 23 24 31 30 27 21 14 11 16 18 25 24 26 23 20 20 22 26 31 34 39 45 45 44 44 47 44 41 37 34 34 32 32 33 29 28 28 30 30 29 28 32
23 23 21 19 23 20 29 28 29 29 26 22 15 13 17 20 21 26 24 23 27 28 25 24 28 32 37 40 41 42 43 45 48 48 43 38 35 37 37 36 36 33 33 32 33 34 34
23 21 22 17 20 18 22 27 27 29 29 26 23 19 21 16 14 19 24 22 23 24 28 30 27 30 31 34 36 36 34 36 41 51 53 51 47 43 40 40 39 39 39 38 36 38 39
23 22 24 19 19 17 24 30 26 28 29 29 26 22 23 23 17 14 18 16 23 24 21 20 22 27 33 32 31 30 29 30 31 37 50 58 56 55 52 48 41 42 47 47 46 44 45
22 24 25 20 18 21 28 32 28 28 28 28 28 26 24 21 21 20 17 19 18 23 24 23 25 26 26 29 29 31 30 30 34 34 37 46 57 60 59 59 56 54 55 52 51 53 52
23 23 22 19 20 21 24 28 33 30 29 30 28 26 24 24 22 22 22 21 22 23 24 25 23 23 26 28 26 28 30 31 32 34 34 36 41 48 55 56 59 59 55 52 56 54 54
23 22 22 17 22 18 25 27 36 31 29 30 28 26 24 24 22 22 23 24 26 26 24 27 29 28 29 27 26 29 30 33 36 34 33 35 35 38 40 43 45 45 46 48 50 50 49

GFSGBSN_500_spd_063.txt.gz
Wind_Speed
30 32 33 35 35 36 37 37 38 37 36 36 35 34 35 34 32 31 31 30 28 26 24 20 17 15 14 15 15 14 12 12 10 8 8 8 7 9 8 7 6 8 5 4 6 4 5
28 30 34 36 37 38 39 39 39 41 40 38 38 37 38 39 38 35 33 34 33 32 29 26 20 18 17 16 17 16 16 14 13 11 11 9 10 9 9 8 8 10 9 4 7 7 14
27 30 32 35 38 40 41 42 42 41 42 42 41 41 40 41 42 42 39 36 36 35 34 31 28 21 20 16 22 19 17 16 13 14 15 14 12 8 8 11 11 11 16 14 11 13 13
22 25 30 35 38 40 42 44 44 44 43 43 43 43 42 41 41 44 44 41 37 37 35 34 32 29 24 19 22 21 21 19 16 16 16 13 13 10 10 13 14 14 14 15 11 13 14
19 22 27 31 34 42 43 44 46 46 45 45 44 44 43 43 41 43 47 46 40 37 36 35 34 33 29 22 22 23 21 24 21 19 18 15 13 11 13 14 16 17 18 15 10 9 15
22 22 24 28 31 35 38 46 47 48 48 47 45 45 44 44 43 43 45 47 48 44 37 35 35 34 32 24 25 25 23 23 24 23 19 17 14 13 15 16 16 19 22 13 7 8 13
25 27 27 29 29 33 35 39 42 50 51 51 48 46 45 44 44 43 45 44 48 49 45 39 36 37 35 32 24 25 26 24 24 24 22 17 16 15 19 19 20 20 21 11 7 9 15
31 29 31 34 32 31 34 36 39 42 45 53 53 50 47 45 45 44 44 44 45 47 46 47 43 40 40 38 31 24 26 26 25 25 26 21 15 18 22 21 20 19 20 15 14 14 16
28 33 37 34 36 35 33 36 36 39 41 45 49 53 50 47 44 45 44 44 44 45 46 42 42 40 38 40 34 22 26 27 26 25 26 25 18 24 24 21 19 20 17 15 14 21 22
30 31 34 38 37 39 32 33 37 36 39 39 42 45 50 50 45 44 44 43 43 43 45 43 40 38 36 37 37 26 25 28 29 24 26 24 21 24 24 21 21 17 18 17 17 23 27
36 34 34 42 37 41 35 35 37 38 35 39 39 39 42 47 46 43 42 43 43 41 45 42 40 41 41 38 37 32 28 31 31 26 27 22 22 24 21 20 22 17 19 19 18 26 26
41 41 37 41 38 35 37 37 36 36 35 36 38 38 38 37 42 43 42 41 41 42 43 39 36 35 36 34 34 34 31 35 33 33 31 24 22 23 18 21 20 18 19 21 24 26 22
43 41 39 39 40 34 35 36 36 33 34 34 36 37 38 37 36 38 40 40 41 42 38 39 37 33 29 23 27 27 30 33 36 34 30 24 20 18 18 20 19 19 21 22 27 27 24
43 44 42 37 39 36 33 35 36 33 31 31 33 37 37 38 35 33 37 40 43 39 36 37 33 30 29 27 24 25 29 33 35 34 30 29 28 23 19 18 23 26 25 24 25 27 28
45 46 43 40 38 37 35 36 34 32 29 28 30 33 36 36 35 33 34 38 42 38 35 35 32 30 25 25 24 25 28 30 32 31 30 28 27 27 27 22 27 33 30 26 25 23 23
45 44 44 39 37 36 33 32 32 32 27 22 22 27 32 34 33 32 33 32 34 35 34 34 33 32 29 27 27 28 28 30 32 31 30 29 27 26 29 28 26 29 31 31 27 27 25
44 43 42 35 34 35 31 34 31 32 29 28 27 26 29 34 32 31 30 29 31 33 35 36 34 34 35 31 32 33 30 28 28 28 28 28 28 24 25 27 26 27 29 33 31 31 27
44 42 39 31 30 32 25 29 34 32 29 28 26 26 29 30 31 33 31 28 27 32 37 37 36 34 36 35 35 36 34 31 30 27 26 26 28 26 26 25 27 29 31 31 30 27 24
42 39 35 29 27 28 22 29 29 32 27 25 21 21 27 27 27 28 29 30 33 34 38 39 37 35 36 36 36 40 39 37 33 30 28 29 30 26 30 28 28 28 28 28 27 27 23
40 38 34 28 26 25 24 27 23 26 25 22 21 22 28 25 25 26 28 29 31 32 34 37 35 35 37 38 40 37 38 38 34 30 28 28 33 30 26 29 27 29 25 24 23 24 24
38 37 33 28 26 23 24 28 25 25 22 22 19 16 29 23 25 25 25 25 28 30 33 35 35 34 37 39 43 41 36 35 35 27 28 27 31 31 27 24 26 29 28 26 25 26 24
36 35 29 26 26 21 22 25 22 23 22 20 16 13 29 25 26 23 22 19 20 24 26 30 32 35 38 40 41 41 43 37 32 30 28 27 27 29 28 26 27 24 25 26 23 22 21
34 33 25 23 25 20 16 18 20 20 23 20 14 13 28 31 27 23 21 20 21 21 23 29 33 34 36 37 42 43 40 40 39 33 32 31 30 28 26 25 26 26 23 22 24 24 23
32 30 23 21 24 18 16 19 21 25 28 23 16 13 11 19 24 22 28 26 27 25 25 25 25 24 32 34 34 37 40 41 40 42 39 36 33 32 31 30 31 29 26 24 24 24 24
30 29 21 19 22 18 18 19 19 25 29 27 21 17 10 11 11 17 21 24 25 25 29 24 18 19 21 22 25 28 32 34 37 42 44 44 43 39 35 35 35 34 32 32 32 31 30
30 28 22 19 21 17 17 17 21 19 27 28 25 24 20 15 15 10 19 29 17 22 30 32 30 24 21 20 20 21 22 22 26 30 35 43 48 47 46 42 40 38 37 38 39 40 37
28 28 22 18 19 18 16 18 21 21 25 27 27 26 24 22 21 20 9 20 26 18 19 16 26 28 23 23 25 26 26 26 27 32 36 37 37 41 49 52 52 51 46 43 42 44 42
26 27 21 17 19 17 17 18 16 22 25 26 26 27 26 23 21 21 17 15 14 18 21 19 19 19 21 22 23 24 26 28 31 33 34 36 39 40 41 43 49 55 53 50 51 50 50
26 27 22 17 18 16 16 16 21 22 28 26 26 26 26 25 22 21 22 22 21 23 22 20 21 22 24 23 20 20 22 25 27 32 33 34 37 38 37 36 36 36 41 46 49 51 53

GFSGBSN_500_spd_069.txt.gz
Wind_Speed
24 27 28 29 31 32 33 33 34 36 37 36 35 35 34 33 33 33 33 32 31 30 28 25 23 22 18 16 15 15 14 11 12 10 10 9 7 8 10 10 13 12 9 8 6 8 7
18 20 22 25 28 31 34 36 36 37 37 39 41 40 40 39 38 37 36 35 35 34 33 31 28 26 24 20 20 17 17 17 15 12 12 10 10 9 9 10 14 17 17 14 5 13 6
14 17 20 23 25 28 29 31 34 37 39 41 41 43 44 43 42 41 40 39 39 38 37 36 34 32 29 28 23 22 19 21 19 16 14 12 12 11 12 12 12 15 15 12 10 14 7
2 7 14 19 22 24 26 29 31 34 36 38 42 44 45 46 47 46 45 42 42 43 42 41 40 38 34 31 28 23 23 23 21 19 16 14 14 13 13 13 12 13 14 13 7 16 10
6 8 9 8 11 14 19 24 28 31 34 37 40 43 45 46 48 48 49 47 44 45 46 44 44 42 39 34 32 28 26 24 23 21 20 18 16 15 14 15 15 14 15 14 9 18 19
14 15 15 16 17 18 19 18 21 25 28 32 37 42 45 47 48 48 49 48 47 46 48 49 44 44 40 38 37 31 29 26 25 23 22 21 20 18 16 16 14 12 14 15 19 19 15
17 18 19 20 22 23 24 25 28 32 35 36 37 40 43 44 48 50 49 48 48 49 51 49 51 47 46 42 37 36 32 27 25 25 21 21 23 19 17 16 18 19 18 17 23 21 20
17 18 21 24 24 25 26 26 29 34 35 36 41 43 41 44 43 45 48 51 48 51 51 48 49 49 46 42 40 37 36 31 27 24 21 23 22 19 22 26 24 20 17 15 19 19 20
21 24 24 25 26 27 27 28 32 34 36 39 44 49 41 42 45 44 44 45 48 50 51 47 49 50 47 47 41 38 37 35 33 27 23 22 18 20 25 25 25 21 18 16 16 17 16
24 26 27 29 31 32 31 32 33 35 37 38 43 47 43 42 45 42 44 41 43 47 49 47 48 48 48 51 47 41 41 38 37 30 22 21 21 23 26 27 21 20 17 18 17 17 14
25 27 29 31 31 32 33 35 36 38 39 41 42 43 44 42 44 39 39 38 39 40 47 36 40 44 44 50 44 40 39 39 39 32 26 21 23 24 30 24 23 20 15 19 16 16 15
28 30 31 34 34 35 37 38 40 40 41 43 41 43 42 41 42 37 36 35 36 39 45 33 29 39 39 42 43 37 35 39 38 33 29 27 22 25 22 23 25 21 22 20 17 14 16
30 33 36 35 37 38 38 39 41 42 43 43 43 44 39 38 35 34 33 32 35 37 29 31 25 31 34 36 39 41 41 44 40 34 35 30 30 28 24 23 21 21 20 15 12 14 14
32 34 37 39 39 39 41 42 43 42 42 42 44 41 34 34 31 30 31 32 33 29 30 15 21 19 25 24 28 34 40 34 36 36 29 28 29 29 28 28 19 19 19 17 13 11 13
34 36 38 39 39 41 40 42 42 43 42 43 41 35 31 32 29 27 29 31 28 27 16 25 25 25 23 24 25 28 32 36 37 32 35 32 31 23 26 27 26 22 23 18 20 20 18
34 37 38 39 41 40 40 40 45 43 43 41 39 30 30 27 23 22 25 27 29 22 26 36 29 20 18 20 24 28 25 27 29 32 33 31 29 23 26 30 26 27 19 20 21 19 20
38 39 37 40 39 39 40 42 39 41 41 38 34 31 25 26 23 18 18 21 26 28 36 35 28 18 19 22 26 20 22 21 26 25 27 28 27 24 27 28 23 25 28 27 19 20 18
39 41 38 38 38 38 39 39 38 39 40 36 28 29 23 24 23 23 22 21 26 35 36 26 31 33 24 23 19 17 15 20 30 28 27 27 28 24 23 21 19 23 19 24 25 23 22
40 40 39 36 35 36 38 37 37 36 36 31 22 22 20 22 21 22 22 25 31 28 31 30 31 33 35 37 29 30 19 24 32 25 20 23 29 27 27 24 23 24 21 22 20 22 23
39 38 36 33 34 36 38 38 35 34 33 26 21 20 22 20 20 20 23 24 30 28 29 31 32 32 33 38 38 31 20 19 30 24 30 30 24 25 25 22 25 26 23 25 22 22 20
36 34 33 32 33 35 35 35 31 32 30 23 20 18 18 23 20 18 25 28 26 29 30 33 31 32 32 34 36 40 32 12 20 28 28 27 27 23 25 23 19 20 26 23 24 23 23
33 33 32 32 34 32 32 31 28 28 25 17 16 16 15 18 19 18 20 27 28 23 23 27 30 28 27 33 36 35 23 21 18 19 20 26 26 24 25 22 20 20 21 20 23 23 22
33 35 32 31 27 28 29 28 24 24 22 14 13 16 15 15 16 17 17 25 26 25 17 18 22 25 26 26 37 39 24 25 24 22 18 27 23 28 22 20 23 28 23 22 22 22 22
32 29 27 26 25 25 27 26 19 20 18 14 14 15 18 16 13 9 22 22 21 19 21 18 22 23 31 31 32 37 30 29 32 34 34 27 25 27 24 27 29 28 32 25 23 28 37
28 26 22 23 23 24 25 21 19 17 17 18 16 13 20 17 15 16 19 23 22 16 19 20 23 23 23 24 28 33 37 36 35 29 37 34 31 26 29 32 20 18 25 28 26 34 29
26 24 23 23 21 23 24 19 17 16 16 16 21 21 23 20 13 7 12 22 18 22 16 22 22 22 21 18 16 24 26 28 32 36 35 39 37 36 34 31 25 33 30 32 30 34 31
26 24 24 21 22 24 24 18 15 17 16 17 17 20 25 22 13 4 2 4 18 21 22 27 30 24 20 22 21 18 26 29 21 27 30 39 37 41 38 39 27 42 34 26 30 35 32
25 25 23 21 21 24 24 18 16 17 17 17 16 20 28 24 19 15 12 10 7 8 19 11 24 29 29 33 18 10 22 27 27 30 24 28 28 27 33 35 33 49 43 44 45 43 42
24 25 25 21 22 24 23 18 17 18 16 16 16 22 29 26 22 20 17 17 15 9 21 22 13 22 32 38 34 38 34 29 24 25 38 34 35 34 34 30 41 42 45 48 49 50 51

GFSGBSN_500_spd_072.txt.gz
Wind_Speed
25 26 27 29 30 31 32 31 32 34 35 35 35 34 33 33 33 33 32 32 32 31 31 29 28 26 24 21 20 17 14 12 11 12 12 10 9 11 16 11 9 13 12 12 13 2 16
15 16 18 20 22 25 27 30 32 34 36 37 38 39 39 38 38 37 36 36 36 36 35 34 33 33 30 25 20 21 19 17 15 13 14 14 12 12 14 15 16 14 17 18 14 1 13
14 15 16 18 20 22 22 24 25 27 29 31 34 38 41 43 43 43 42 40 39 40 40 39 38 37 35 31 28 26 22 21 18 17 17 16 16 14 16 13 13 11 15 13 10 6 12
1 2 5 6 8 12 17 21 24 27 28 29 30 32 34 36 40 44 47 46 43 42 43 44 43 43 39 38 34 32 25 25 23 20 19 18 17 18 19 17 14 9 12 13 7 9 18
3 5 8 10 10 11 12 13 14 15 15 17 20 24 29 34 37 40 43 47 50 47 46 46 48 49 43 41 37 35 32 27 25 24 21 20 19 19 18 16 16 12 11 12 12 8 20
10 12 13 14 15 16 19 19 21 23 24 27 29 32 32 31 32 34 41 45 48 50 51 50 49 52 45 42 41 41 38 32 27 25 23 21 22 22 18 17 15 9 11 13 12 10 16
15 15 15 16 18 20 21 21 23 23 25 27 29 32 35 39 44 41 37 39 48 52 54 52 48 55 48 49 48 43 38 37 32 27 22 22 25 21 18 14 14 14 18 21 25 21 21
21 21 22 23 23 24 25 25 26 27 27 27 30 31 32 37 41 41 41 40 44 47 54 53 48 52 48 50 54 43 38 40 36 29 23 22 26 18 17 17 18 21 20 16 19 31 29
21 23 23 23 25 27 29 30 30 31 31 31 32 33 35 38 39 40 44 48 44 48 52 48 52 49 47 48 53 45 42 41 38 34 28 23 18 12 16 22 20 24 19 16 17 16 18
24 25 26 28 28 28 28 30 31 32 34 36 36 37 38 40 39 43 47 43 46 49 53 47 46 48 46 47 53 46 43 43 39 35 23 21 17 19 23 22 22 22 14 17 17 17 18
25 25 27 28 30 32 33 32 33 34 37 37 39 39 42 38 40 43 46 43 43 44 50 42 31 36 40 47 43 48 44 40 42 39 31 31 24 21 24 23 23 21 17 17 18 21 16
27 27 27 27 31 33 33 35 36 38 40 41 41 41 43 41 41 43 44 39 41 41 44 33 24 14 23 30 39 39 33 40 38 35 34 30 23 21 25 22 22 20 20 20 19 17 21
28 28 28 30 31 33 35 36 38 40 40 42 41 44 42 42 43 41 39 34 35 38 27 22 18 13 21 25 26 32 37 31 38 38 38 35 32 28 25 26 19 18 18 18 17 15 17
30 29 30 32 32 35 36 38 40 41 41 41 43 43 40 40 43 37 33 32 33 27 22 14 14 22 20 23 26 31 32 35 35 32 32 28 30 31 28 29 22 17 18 19 17 12 11
32 32 33 33 35 38 38 39 41 41 39 40 42 42 41 43 40 33 31 30 25 22 15 10 25 16 18 22 22 25 30 37 36 33 37 36 33 22 23 27 28 26 26 19 21 21 19
32 34 35 36 39 41 42 42 41 41 39 38 39 44 43 41 36 29 24 21 22 23 20 15 14 19 19 19 19 21 27 31 34 37 34 30 33 33 27 23 31 30 23 21 23 23 24
34 37 39 40 43 42 42 41 40 38 38 38 40 41 39 35 29 21 20 18 16 18 24 16 19 16 16 17 21 29 28 26 24 34 33 38 36 30 28 25 29 30 31 29 22 21 19
38 39 40 42 40 41 41 38 37 37 38 38 39 39 35 32 22 19 18 20 16 19 23 20 25 34 33 26 21 13 31 18 35 31 28 29 32 33 31 21 25 30 25 26 30 30 28
40 40 39 40 40 37 37 34 34 36 35 34 35 35 34 24 15 18 17 16 19 20 28 22 22 20 31 31 18 17 20 14 11 30 30 31 29 30 28 26 26 27 27 27 22 20 28
40 40 38 38 36 34 35 33 35 34 31 33 32 32 29 20 16 19 15 18 16 20 26 29 32 26 22 35 29 28 29 4 4 18 30 33 29 30 30 28 19 24 24 24 27 26 21
39 39 37 38 36 34 36 34 31 29 29 30 30 28 22 19 11 23 19 17 23 19 14 24 26 29 31 36 43 44 33 12 7 7 20 28 35 26 28 28 28 33 32 27 27 28 25
39 38 35 34 31 30 30 27 26 27 28 27 28 24 16 15 16 16 16 17 20 22 26 20 18 23 33 25 34 38 36 37 24 12 19 25 33 30 29 27 24 18 31 17 25 24 27
34 31 29 29 28 27 26 26 25 25 27 25 24 21 14 13 11 13 15 17 18 20 17 18 27 13 24 25 19 22 32 39 24 20 20 22 18 32 36 33 22 29 19 18 24 31 24
28 29 27 26 26 24 25 25 25 23 25 24 23 18 15 14 14 15 17 18 18 20 22 30 21 24 20 34 35 36 35 30 33 23 36 29 42 33 35 22 22 29 29 27 26 27 33
27 27 26 24 25 23 25 23 24 24 22 22 22 19 16 17 17 18 16 20 19 20 17 19 11 17 18 21 25 26 25 33 33 27 24 20 9 30 34 31 26 38 33 34 24 43 43
25 25 24 24 23 24 24 24 24 23 20 21 22 18 21 18 23 15 18 20 20 24 19 16 15 12 17 16 12 16 22 27 37 31 36 29 35 33 30 38 32 37 35 60 13 46 37
24 24 23 22 23 25 25 25 25 23 20 21 22 22 23 26 26 22 14 11 19 21 16 19 16 12 16 18 25 27 21 24 25 27 25 38 37 37 33 34 33 36 31 16 20 34 23
24 23 23 23 24 24 24 24 25 24 20 22 22 21 20 21 26 22 13 4 3 16 24 20 16 22 20 25 23 34 27 34 32 37 39 39 34 30 38 39 35 46 42 34 36 41 36
24 24 23 24 25 25 25 25 25 24 19 23 22 20 17 20 27 23 22 15 11 8 9 26 13 11 27 27 23 17 41 26 36 38 17 46 40 28 39 39 52 53 44 40 42 39 36

GFSGBSN_500_spd_075.txt.gz
Wind_Speed
25 26 26 27 28 30 30 31 32 33 34 35 35 34 34 34 33 32 32 31 31 31 30 31 30 28 26 24 23 21 18 16 16 15 13 13 14 16 21 29 31 17 16 16 17 16 7
13 14 15 17 18 18 20 22 24 27 29 32 35 38 38 38 39 38 37 37 36 36 36 35 35 34 33 27 28 25 24 20 18 17 16 16 15 17 17 20 21 14 22 24 23 12 4
13 14 15 16 17 19 20 21 23 24 25 26 26 26 28 30 33 38 41 42 42 41 42 41 41 40 39 31 35 27 27 28 22 20 20 19 21 20 17 17 17 16 17 15 9 9 9
2 1 2 4 3 7 8 9 11 11 12 15 19 21 24 25 27 30 32 34 38 43 46 48 48 48 43 37 42 34 34 28 29 25 21 22 23 22 21 18 17 12 12 9 12 9 5
4 6 8 8 9 10 11 13 14 16 17 17 17 22 23 24 24 25 24 26 32 37 42 46 49 54 49 44 43 41 40 36 31 28 24 24 25 24 23 20 19 16 9 4 3 7 3
7 8 10 11 12 13 15 16 17 19 21 22 23 24 26 25 27 26 30 34 35 36 37 41 45 49 46 42 43 46 46 43 40 31 29 25 25 27 25 22 15 16 18 1 7 2 9
11 13 13 15 16 17 17 18 20 21 22 23 23 24 24 25 26 26 29 32 34 31 31 38 42 45 47 45 49 47 42 43 45 45 30 25 29 26 22 22 21 15 13 15 22 21 25
17 18 19 20 20 21 21 22 24 25 25 24 26 29 31 30 32 33 34 34 32 33 35 37 37 40 44 41 50 50 45 44 43 47 35 32 32 19 21 23 22 13 16 25 27 30 28
20 21 22 24 24 24 25 24 26 27 29 29 29 32 33 34 34 36 37 37 34 37 42 36 38 39 40 43 48 50 46 43 41 38 39 38 29 20 20 19 20 17 23 27 19 25 36
21 22 23 23 25 26 27 29 30 30 30 30 32 34 35 36 37 37 41 36 38 42 45 39 34 28 32 36 47 47 46 40 40 41 37 38 32 26 18 16 13 22 20 21 15 12 20
25 27 28 27 26 27 27 29 31 32 33 35 35 36 39 35 38 41 41 38 39 41 45 33 25 19 24 30 32 41 43 44 42 41 35 39 30 20 14 19 23 28 23 18 18 20 24
27 29 28 28 28 26 27 28 29 31 34 36 37 37 39 39 39 39 40 40 42 43 40 29 19 13 15 16 16 32 38 43 42 38 38 36 28 26 25 18 20 25 31 32 25 24 26
29 29 29 29 29 29 30 30 31 33 34 37 39 40 39 39 41 40 40 42 43 39 29 12 9 19 21 11 19 13 26 33 31 35 43 37 34 29 25 24 20 23 26 21 25 24 6
29 28 30 30 30 31 32 33 35 38 37 39 40 40 40 39 42 41 41 41 39 28 19 11 21 29 24 15 15 18 23 26 37 38 30 30 39 35 32 32 29 28 29 22 22 19 11
29 31 31 32 33 35 36 37 40 40 39 39 41 40 38 41 41 40 39 40 33 23 16 19 28 26 26 23 17 19 23 30 32 37 40 42 36 23 22 28 31 29 33 23 22 21 24
34 34 35 35 36 36 39 40 40 40 40 39 42 41 38 40 39 38 39 33 24 18 16 23 28 26 27 28 17 26 29 27 35 32 42 42 33 33 30 33 28 27 24 22 30 28 27
34 35 35 36 37 39 40 40 40 40 40 40 40 42 38 37 36 39 35 23 17 16 19 26 27 31 31 31 24 25 31 28 25 34 43 18 42 28 24 36 34 38 33 34 27 29 24
36 37 36 37 37 39 38 39 38 38 38 39 39 37 35 34 34 38 30 22 18 12 13 26 34 26 34 29 34 33 23 25 36 32 30 35 45 43 39 34 31 35 34 30 37 28 30
40 38 39 39 39 39 37 37 38 36 36 36 33 32 32 31 33 35 26 13 18 18 13 25 34 33 37 38 36 39 29 32 20 27 35 27 23 29 32 25 27 30 35 26 30 28 28
40 40 38 37 38 38 38 37 35 32 32 29 29 31 30 30 32 31 24 18 15 19 19 24 29 35 35 35 40 41 35 31 32 29 21 25 27 25 34 33 29 33 25 34 33 30 25
39 38 37 35 37 37 34 32 30 29 27 27 28 28 29 31 27 17 17 14 17 17 21 24 25 26 24 27 28 41 42 34 30 11 27 25 33 35 31 37 27 26 39 35 28 30 29
37 36 36 34 33 31 29 28 27 26 25 26 26 27 27 28 21 15 19 18 19 19 20 20 22 21 25 28 28 32 36 32 34 6 10 16 33 36 31 34 33 25 10 18 37 33 38
35 33 30 28 26 27 26 25 26 25 25 25 25 27 26 24 18 19 20 15 17 18 14 18 26 23 23 16 29 34 39 45 34 25 15 15 32 34 34 35 44 22 25 24 31 45 35
30 27 27 26 25 26 25 23 23 24 24 25 25 26 24 22 18 22 19 20 18 21 15 19 19 26 28 25 25 27 36 39 45 35 31 25 25 35 38 40 35 27 29 32 34 36 39
26 24 26 26 24 23 22 23 24 24 25 25 25 25 24 22 19 24 16 15 17 17 19 19 21 26 31 26 24 19 30 28 26 32 33 37 37 30 32 43 38 31 32 27 26 23 33
26 27 26 24 23 22 21 22 25 25 26 26 25 24 24 21 22 19 18 19 21 24 22 22 9 16 8 27 25 22 27 22 20 22 30 35 33 29 32 30 33 35 45 44 38 44 26
29 26 24 24 22 21 23 24 24 24 25 26 25 23 23 22 26 21 21 19 20 19 18 17 13 8 11 24 22 18 18 21 18 19 27 29 26 32 18 18 32 36 42 41 41 39 39
28 26 24 23 22 22 23 23 23 24 26 26 24 23 23 23 25 18 20 17 14 12 17 23 17 16 20 19 20 19 21 26 28 27 27 34 34 36 37 37 41 47 44 43 46 49 44
26 26 24 23 24 24 25 26 25 26 27 26 23 23 23 22 20 17 19 24 17 10 8 18 24 19 17 26 29 5 18 23 27 27 30 30 35 39 40 35 37 46 36 36 37 39 45